#datetime,building,power
2022-08-28T00:00:00,mfh,17.55
2022-08-28T00:01:00,mfh,17.51
2022-08-28T00:02:00,mfh,18.61
2022-08-28T00:03:00,mfh,17.42
2022-08-28T00:04:00,mfh,17.81
2022-08-28T00:05:00,mfh,17.91
2022-08-28T00:06:00,mfh,17.98
2022-08-28T00:07:00,mfh,17.26
2022-08-28T00:08:00,mfh,17.95
2022-08-28T00:09:00,mfh,17.24
2022-08-28T00:10:00,mfh,17.21
2022-08-28T00:11:00,mfh,17.79
2022-08-28T00:12:00,mfh,18.05
2022-08-28T00:13:00,mfh,19.76
2022-08-28T00:14:00,mfh,18.56
2022-08-28T00:15:00,mfh,18.45
2022-08-28T00:16:00,mfh,17.42
2022-08-28T00:17:00,mfh,17.44
2022-08-28T00:18:00,mfh,17.52
2022-08-28T00:19:00,mfh,17.53
2022-08-28T00:20:00,mfh,18.12
2022-08-28T00:21:00,mfh,18.76
2022-08-28T00:22:00,mfh,18.19
2022-08-28T00:23:00,mfh,18.53
2022-08-28T00:24:00,mfh,17.42
2022-08-28T00:25:00,mfh,17.41
2022-08-28T00:26:00,mfh,17.48
2022-08-28T00:27:00,mfh,17.36
2022-08-28T00:28:00,mfh,19.13
2022-08-28T00:29:00,mfh,17.95
2022-08-28T00:30:00,mfh,18.03
2022-08-28T00:31:00,mfh,18.47
2022-08-28T00:32:00,mfh,17.16
2022-08-28T00:33:00,mfh,17.61
2022-08-28T00:34:00,mfh,17.26
2022-08-28T00:35:00,mfh,17.21
2022-08-28T00:36:00,mfh,18.22
2022-08-28T00:37:00,mfh,17.88
2022-08-28T00:38:00,mfh,17.89
2022-08-28T00:39:00,mfh,18.16
2022-08-28T00:40:00,mfh,17.38
2022-08-28T00:41:00,mfh,17.33
2022-08-28T00:42:00,mfh,17.26
2022-08-28T00:43:00,mfh,17.16
2022-08-28T00:44:00,mfh,17.52
2022-08-28T00:45:00,mfh,18.12
2022-08-28T00:46:00,mfh,18.09
2022-08-28T00:47:00,mfh,18.42
2022-08-28T00:48:00,mfh,18.35
2022-08-28T00:49:00,mfh,18.10
2022-08-28T00:50:00,mfh,18.28
2022-08-28T00:51:00,mfh,17.79
2022-08-28T00:52:00,mfh,17.44
2022-08-28T00:53:00,mfh,18.08
2022-08-28T00:54:00,mfh,18.24
2022-08-28T00:55:00,mfh,18.43
2022-08-28T00:56:00,mfh,18.64
2022-08-28T00:57:00,mfh,17.93
2022-08-28T00:58:00,mfh,17.51
2022-08-28T00:59:00,mfh,17.52
2022-08-28T01:00:00,mfh,18.06
2022-08-28T01:01:00,mfh,18.74
2022-08-28T01:02:00,mfh,18.08
2022-08-28T01:03:00,mfh,18.33
2022-08-28T01:04:00,mfh,19.29
2022-08-28T01:05:00,mfh,17.58
2022-08-28T01:06:00,mfh,17.64
2022-08-28T01:07:00,mfh,18.19
2022-08-28T01:08:00,mfh,17.64
2022-08-28T01:09:00,mfh,18.20
2022-08-28T01:10:00,mfh,19.54
2022-08-28T01:11:00,mfh,18.29
2022-08-28T01:12:00,mfh,18.02
2022-08-28T01:13:00,mfh,17.76
2022-08-28T01:14:00,mfh,17.52
2022-08-28T01:15:00,mfh,17.74
2022-08-28T01:16:00,mfh,17.63
2022-08-28T01:17:00,mfh,17.66
2022-08-28T01:18:00,mfh,18.36
2022-08-28T01:19:00,mfh,18.55
2022-08-28T01:20:00,mfh,18.43
2022-08-28T01:21:00,mfh,18.85
2022-08-28T01:22:00,mfh,17.99
2022-08-28T01:23:00,mfh,17.85
2022-08-28T01:24:00,mfh,17.69
2022-08-28T01:25:00,mfh,17.64
2022-08-28T01:26:00,mfh,18.14
2022-08-28T01:27:00,mfh,18.03
2022-08-28T01:28:00,mfh,17.78
2022-08-28T01:29:00,mfh,17.07
2022-08-28T01:30:00,mfh,17.03
2022-08-28T01:31:00,mfh,17.80
2022-08-28T01:32:00,mfh,17.11
2022-08-28T01:33:00,mfh,17.40
2022-08-28T01:34:00,mfh,17.76
2022-08-28T01:35:00,mfh,17.73
2022-08-28T01:36:00,mfh,17.91
2022-08-28T01:37:00,mfh,18.07
2022-08-28T01:38:00,mfh,17.16
2022-08-28T01:39:00,mfh,17.14
2022-08-28T01:40:00,mfh,17.00
2022-08-28T01:41:00,mfh,16.95
2022-08-28T01:42:00,mfh,18.15
2022-08-28T01:43:00,mfh,17.92
2022-08-28T01:44:00,mfh,17.64
2022-08-28T01:45:00,mfh,17.84
2022-08-28T01:46:00,mfh,17.71
2022-08-28T01:47:00,mfh,18.71
2022-08-28T01:48:00,mfh,17.30
2022-08-28T01:49:00,mfh,17.76
2022-08-28T01:50:00,mfh,17.85
2022-08-28T01:51:00,mfh,18.49
2022-08-28T01:52:00,mfh,18.49
2022-08-28T01:53:00,mfh,18.67
2022-08-28T01:54:00,mfh,18.12
2022-08-28T01:55:00,mfh,18.31
2022-08-28T01:56:00,mfh,17.65
2022-08-28T01:57:00,mfh,17.52
2022-08-28T01:58:00,mfh,18.30
2022-08-28T01:59:00,mfh,17.86
2022-08-28T02:00:00,mfh,18.42
2022-08-28T02:01:00,mfh,18.54
2022-08-28T02:02:00,mfh,17.83
2022-08-28T02:03:00,mfh,15.70
2022-08-28T02:04:00,mfh,15.03
2022-08-28T02:05:00,mfh,15.11
2022-08-28T02:06:00,mfh,15.67
2022-08-28T02:07:00,mfh,15.74
2022-08-28T02:08:00,mfh,16.48
2022-08-28T02:09:00,mfh,15.86
2022-08-28T02:10:00,mfh,15.03
2022-08-28T02:11:00,mfh,15.49
2022-08-28T02:12:00,mfh,15.47
2022-08-28T02:13:00,mfh,14.96
2022-08-28T02:14:00,mfh,15.39
2022-08-28T02:15:00,mfh,15.65
2022-08-28T02:16:00,mfh,16.09
2022-08-28T02:17:00,mfh,16.13
2022-08-28T02:18:00,mfh,15.91
2022-08-28T02:19:00,mfh,15.92
2022-08-28T02:20:00,mfh,15.18
2022-08-28T02:21:00,mfh,16.56
2022-08-28T02:22:00,mfh,16.76
2022-08-28T02:23:00,mfh,17.67
2022-08-28T02:24:00,mfh,17.37
2022-08-28T02:25:00,mfh,17.44
2022-08-28T02:26:00,mfh,17.95
2022-08-28T02:27:00,mfh,15.16
2022-08-28T02:28:00,mfh,16.11
2022-08-28T02:29:00,mfh,16.23
2022-08-28T02:30:00,mfh,16.05
2022-08-28T02:31:00,mfh,16.68
2022-08-28T02:32:00,mfh,16.86
2022-08-28T02:33:00,mfh,16.34
2022-08-28T02:34:00,mfh,15.51
2022-08-28T02:35:00,mfh,15.08
2022-08-28T02:36:00,mfh,15.29
2022-08-28T02:37:00,mfh,15.31
2022-08-28T02:38:00,mfh,15.18
2022-08-28T02:39:00,mfh,15.30
2022-08-28T02:40:00,mfh,15.67
2022-08-28T02:41:00,mfh,15.41
2022-08-28T02:42:00,mfh,16.06
2022-08-28T02:43:00,mfh,15.59
2022-08-28T02:44:00,mfh,14.78
2022-08-28T02:45:00,mfh,14.77
2022-08-28T02:46:00,mfh,15.39
2022-08-28T02:47:00,mfh,14.91
2022-08-28T02:48:00,mfh,16.23
2022-08-28T02:49:00,mfh,16.30
2022-08-28T02:50:00,mfh,15.78
2022-08-28T02:51:00,mfh,15.03
2022-08-28T02:52:00,mfh,15.44
2022-08-28T02:53:00,mfh,15.50
2022-08-28T02:54:00,mfh,15.28
2022-08-28T02:55:00,mfh,15.09
2022-08-28T02:56:00,mfh,15.69
2022-08-28T02:57:00,mfh,16.18
2022-08-28T02:58:00,mfh,16.39
2022-08-28T02:59:00,mfh,16.41
2022-08-28T03:00:00,mfh,14.94
2022-08-28T03:01:00,mfh,14.87
2022-08-28T03:02:00,mfh,15.24
2022-08-28T03:03:00,mfh,15.84
2022-08-28T03:04:00,mfh,15.76
2022-08-28T03:05:00,mfh,15.76
2022-08-28T03:06:00,mfh,15.48
2022-08-28T03:07:00,mfh,15.42
2022-08-28T03:08:00,mfh,15.04
2022-08-28T03:09:00,mfh,14.65
2022-08-28T03:10:00,mfh,14.64
2022-08-28T03:11:00,mfh,15.00
2022-08-28T03:12:00,mfh,15.41
2022-08-28T03:13:00,mfh,15.44
2022-08-28T03:14:00,mfh,16.22
2022-08-28T03:15:00,mfh,15.36
2022-08-28T03:16:00,mfh,15.20
2022-08-28T03:17:00,mfh,14.69
2022-08-28T03:18:00,mfh,15.08
2022-08-28T03:19:00,mfh,15.43
2022-08-28T03:20:00,mfh,14.81
2022-08-28T03:21:00,mfh,15.43
2022-08-28T03:22:00,mfh,16.73
2022-08-28T03:23:00,mfh,15.72
2022-08-28T03:24:00,mfh,15.00
2022-08-28T03:25:00,mfh,15.09
2022-08-28T03:26:00,mfh,15.46
2022-08-28T03:27:00,mfh,15.11
2022-08-28T03:28:00,mfh,15.85
2022-08-28T03:29:00,mfh,15.95
2022-08-28T03:30:00,mfh,15.44
2022-08-28T03:31:00,mfh,15.72
2022-08-28T03:32:00,mfh,15.42
2022-08-28T03:33:00,mfh,14.71
2022-08-28T03:34:00,mfh,15.10
2022-08-28T03:35:00,mfh,15.15
2022-08-28T03:36:00,mfh,14.78
2022-08-28T03:37:00,mfh,15.41
2022-08-28T03:38:00,mfh,15.19
2022-08-28T03:39:00,mfh,15.48
2022-08-28T03:40:00,mfh,15.08
2022-08-28T03:41:00,mfh,15.86
2022-08-28T03:42:00,mfh,14.53
2022-08-28T03:43:00,mfh,15.15
2022-08-28T03:44:00,mfh,15.25
2022-08-28T03:45:00,mfh,15.15
2022-08-28T03:46:00,mfh,15.43
2022-08-28T03:47:00,mfh,15.21
2022-08-28T03:48:00,mfh,15.14
2022-08-28T03:49:00,mfh,14.55
2022-08-28T03:50:00,mfh,14.37
2022-08-28T03:51:00,mfh,15.22
2022-08-28T03:52:00,mfh,14.64
2022-08-28T03:53:00,mfh,15.30
2022-08-28T03:54:00,mfh,15.31
2022-08-28T03:55:00,mfh,14.58
2022-08-28T03:56:00,mfh,14.53
2022-08-28T03:57:00,mfh,14.22
2022-08-28T03:58:00,mfh,13.81
2022-08-28T03:59:00,mfh,14.17
2022-08-28T04:00:00,mfh,13.74
2022-08-28T04:01:00,mfh,14.51
2022-08-28T04:02:00,mfh,14.98
2022-08-28T04:03:00,mfh,14.26
2022-08-28T04:04:00,mfh,14.25
2022-08-28T04:05:00,mfh,13.67
2022-08-28T04:06:00,mfh,13.57
2022-08-28T04:07:00,mfh,13.57
2022-08-28T04:08:00,mfh,13.40
2022-08-28T04:09:00,mfh,14.12
2022-08-28T04:10:00,mfh,14.86
2022-08-28T04:11:00,mfh,14.50
2022-08-28T04:12:00,mfh,15.24
2022-08-28T04:13:00,mfh,14.62
2022-08-28T04:14:00,mfh,14.67
2022-08-28T04:15:00,mfh,16.33
2022-08-28T04:16:00,mfh,16.01
2022-08-28T04:17:00,mfh,16.20
2022-08-28T04:18:00,mfh,16.60
2022-08-28T04:19:00,mfh,13.21
2022-08-28T04:20:00,mfh,14.18
2022-08-28T04:21:00,mfh,12.44
2022-08-28T04:22:00,mfh,12.70
2022-08-28T04:23:00,mfh,12.59
2022-08-28T04:24:00,mfh,12.54
2022-08-28T04:25:00,mfh,12.57
2022-08-28T04:26:00,mfh,13.30
2022-08-28T04:27:00,mfh,13.20
2022-08-28T04:28:00,mfh,13.29
2022-08-28T04:29:00,mfh,12.53
2022-08-28T04:30:00,mfh,12.51
2022-08-28T04:31:00,mfh,13.39
2022-08-28T04:32:00,mfh,13.45
2022-08-28T04:33:00,mfh,13.23
2022-08-28T04:34:00,mfh,13.95
2022-08-28T04:35:00,mfh,13.88
2022-08-28T04:36:00,mfh,13.15
2022-08-28T04:37:00,mfh,13.11
2022-08-28T04:38:00,mfh,12.57
2022-08-28T04:39:00,mfh,12.36
2022-08-28T04:40:00,mfh,12.36
2022-08-28T04:41:00,mfh,12.35
2022-08-28T04:42:00,mfh,13.01
2022-08-28T04:43:00,mfh,13.04
2022-08-28T04:44:00,mfh,13.90
2022-08-28T04:45:00,mfh,12.51
2022-08-28T04:46:00,mfh,11.78
2022-08-28T04:47:00,mfh,12.13
2022-08-28T04:48:00,mfh,11.71
2022-08-28T04:49:00,mfh,11.69
2022-08-28T04:50:00,mfh,12.25
2022-08-28T04:51:00,mfh,12.34
2022-08-28T04:52:00,mfh,12.36
2022-08-28T04:53:00,mfh,12.34
2022-08-28T04:54:00,mfh,11.75
2022-08-28T04:55:00,mfh,12.03
2022-08-28T04:56:00,mfh,12.54
2022-08-28T04:57:00,mfh,12.08
2022-08-28T04:58:00,mfh,12.08
2022-08-28T04:59:00,mfh,12.68
2022-08-28T05:00:00,mfh,12.81
2022-08-28T05:01:00,mfh,26.00
2022-08-28T05:02:00,mfh,27.30
2022-08-28T05:03:00,mfh,28.02
2022-08-28T05:04:00,mfh,28.04
2022-08-28T05:05:00,mfh,28.02
2022-08-28T05:06:00,mfh,27.79
2022-08-28T05:07:00,mfh,28.86
2022-08-28T05:08:00,mfh,28.37
2022-08-28T05:09:00,mfh,28.31
2022-08-28T05:10:00,mfh,27.58
2022-08-28T05:11:00,mfh,27.69
2022-08-28T05:12:00,mfh,27.62
2022-08-28T05:13:00,mfh,27.71
2022-08-28T05:14:00,mfh,27.59
2022-08-28T05:15:00,mfh,28.20
2022-08-28T05:16:00,mfh,28.15
2022-08-28T05:17:00,mfh,28.14
2022-08-28T05:18:00,mfh,28.14
2022-08-28T05:19:00,mfh,27.47
2022-08-28T05:20:00,mfh,27.62
2022-08-28T05:21:00,mfh,27.62
2022-08-28T05:22:00,mfh,27.58
2022-08-28T05:23:00,mfh,28.23
2022-08-28T05:24:00,mfh,27.57
2022-08-28T05:25:00,mfh,27.45
2022-08-28T05:26:00,mfh,27.31
2022-08-28T05:27:00,mfh,26.68
2022-08-28T05:28:00,mfh,26.87
2022-08-28T05:29:00,mfh,26.77
2022-08-28T05:30:00,mfh,26.81
2022-08-28T05:31:00,mfh,27.48
2022-08-28T05:32:00,mfh,27.39
2022-08-28T05:33:00,mfh,27.42
2022-08-28T05:34:00,mfh,27.42
2022-08-28T05:35:00,mfh,26.71
2022-08-28T05:36:00,mfh,26.62
2022-08-28T05:37:00,mfh,27.30
2022-08-28T05:38:00,mfh,26.62
2022-08-28T05:39:00,mfh,27.19
2022-08-28T05:40:00,mfh,27.39
2022-08-28T05:41:00,mfh,28.48
2022-08-28T05:42:00,mfh,28.47
2022-08-28T05:43:00,mfh,28.27
2022-08-28T05:44:00,mfh,27.58
2022-08-28T05:45:00,mfh,27.73
2022-08-28T05:46:00,mfh,27.48
2022-08-28T05:47:00,mfh,27.49
2022-08-28T05:48:00,mfh,28.13
2022-08-28T05:49:00,mfh,28.02
2022-08-28T05:50:00,mfh,28.12
2022-08-28T05:51:00,mfh,28.02
2022-08-28T05:52:00,mfh,27.33
2022-08-28T05:53:00,mfh,27.70
2022-08-28T05:54:00,mfh,27.22
2022-08-28T05:55:00,mfh,28.04
2022-08-28T05:56:00,mfh,28.60
2022-08-28T05:57:00,mfh,27.67
2022-08-28T05:58:00,mfh,28.13
2022-08-28T05:59:00,mfh,28.46
2022-08-28T06:00:00,mfh,27.77
2022-08-28T06:01:00,mfh,27.35
2022-08-28T06:02:00,mfh,27.33
2022-08-28T06:03:00,mfh,27.10
2022-08-28T06:04:00,mfh,27.31
2022-08-28T06:05:00,mfh,27.56
2022-08-28T06:06:00,mfh,27.45
2022-08-28T06:07:00,mfh,27.33
2022-08-28T06:08:00,mfh,26.72
2022-08-28T06:09:00,mfh,26.75
2022-08-28T06:10:00,mfh,26.40
2022-08-28T06:11:00,mfh,26.55
2022-08-28T06:12:00,mfh,26.36
2022-08-28T06:13:00,mfh,27.00
2022-08-28T06:14:00,mfh,27.10
2022-08-28T06:15:00,mfh,40.24
2022-08-28T06:16:00,mfh,49.94
2022-08-28T06:17:00,mfh,49.83
2022-08-28T06:18:00,mfh,51.15
2022-08-28T06:19:00,mfh,50.45
2022-08-28T06:20:00,mfh,50.12
2022-08-28T06:21:00,mfh,49.62
2022-08-28T06:22:00,mfh,49.57
2022-08-28T06:23:00,mfh,49.53
2022-08-28T06:24:00,mfh,42.18
2022-08-28T06:25:00,mfh,42.02
2022-08-28T06:26:00,mfh,41.48
2022-08-28T06:27:00,mfh,41.44
2022-08-28T06:28:00,mfh,33.65
2022-08-28T06:29:00,mfh,28.46
2022-08-28T06:30:00,mfh,29.11
2022-08-28T06:31:00,mfh,28.21
2022-08-28T06:32:00,mfh,28.95
2022-08-28T06:33:00,mfh,27.84
2022-08-28T06:34:00,mfh,27.39
2022-08-28T06:35:00,mfh,27.61
2022-08-28T06:36:00,mfh,28.75
2022-08-28T06:37:00,mfh,28.82
2022-08-28T06:38:00,mfh,28.87
2022-08-28T06:39:00,mfh,29.32
2022-08-28T06:40:00,mfh,28.76
2022-08-28T06:41:00,mfh,27.41
2022-08-28T06:42:00,mfh,27.27
2022-08-28T06:43:00,mfh,27.21
2022-08-28T06:44:00,mfh,27.35
2022-08-28T06:45:00,mfh,27.66
2022-08-28T06:46:00,mfh,27.17
2022-08-28T06:47:00,mfh,27.12
2022-08-28T06:48:00,mfh,28.46
2022-08-28T06:49:00,mfh,26.56
2022-08-28T06:50:00,mfh,26.27
2022-08-28T06:51:00,mfh,26.25
2022-08-28T06:52:00,mfh,26.22
2022-08-28T06:53:00,mfh,26.30
2022-08-28T06:54:00,mfh,27.03
2022-08-28T06:55:00,mfh,27.36
2022-08-28T06:56:00,mfh,27.23
2022-08-28T06:57:00,mfh,27.30
2022-08-28T06:58:00,mfh,26.80
2022-08-28T06:59:00,mfh,26.43
2022-08-28T07:00:00,mfh,26.43
2022-08-28T07:01:00,mfh,26.46
2022-08-28T07:02:00,mfh,27.95
2022-08-28T07:03:00,mfh,28.43
2022-08-28T07:04:00,mfh,28.51
2022-08-28T07:05:00,mfh,27.89
2022-08-28T07:06:00,mfh,27.15
2022-08-28T07:07:00,mfh,27.08
2022-08-28T07:08:00,mfh,27.29
2022-08-28T07:09:00,mfh,27.40
2022-08-28T07:10:00,mfh,27.99
2022-08-28T07:11:00,mfh,28.00
2022-08-28T07:12:00,mfh,29.08
2022-08-28T07:13:00,mfh,29.57
2022-08-28T07:14:00,mfh,28.95
2022-08-28T07:15:00,mfh,28.95
2022-08-28T07:16:00,mfh,28.85
2022-08-28T07:17:00,mfh,28.78
2022-08-28T07:18:00,mfh,28.66
2022-08-28T07:19:00,mfh,28.79
2022-08-28T07:20:00,mfh,28.85
2022-08-28T07:21:00,mfh,28.85
2022-08-28T07:22:00,mfh,28.12
2022-08-28T07:23:00,mfh,28.21
2022-08-28T07:24:00,mfh,28.23
2022-08-28T07:25:00,mfh,28.19
2022-08-28T07:26:00,mfh,28.15
2022-08-28T07:27:00,mfh,29.27
2022-08-28T07:28:00,mfh,28.95
2022-08-28T07:29:00,mfh,29.97
2022-08-28T07:30:00,mfh,28.62
2022-08-28T07:31:00,mfh,29.09
2022-08-28T07:32:00,mfh,28.23
2022-08-28T07:33:00,mfh,27.30
2022-08-28T07:34:00,mfh,27.74
2022-08-28T07:35:00,mfh,28.10
2022-08-28T07:36:00,mfh,29.05
2022-08-28T07:37:00,mfh,27.84
2022-08-28T07:38:00,mfh,27.09
2022-08-28T07:39:00,mfh,27.19
2022-08-28T07:40:00,mfh,27.25
2022-08-28T07:41:00,mfh,30.62
2022-08-28T07:42:00,mfh,31.04
2022-08-28T07:43:00,mfh,30.98
2022-08-28T07:44:00,mfh,30.74
2022-08-28T07:45:00,mfh,30.79
2022-08-28T07:46:00,mfh,32.16
2022-08-28T07:47:00,mfh,30.13
2022-08-28T07:48:00,mfh,30.02
2022-08-28T07:49:00,mfh,30.04
2022-08-28T07:50:00,mfh,29.96
2022-08-28T07:51:00,mfh,31.15
2022-08-28T07:52:00,mfh,30.71
2022-08-28T07:53:00,mfh,31.03
2022-08-28T07:54:00,mfh,30.79
2022-08-28T07:55:00,mfh,30.16
2022-08-28T07:56:00,mfh,42.61
2022-08-28T07:57:00,mfh,52.13
2022-08-28T07:58:00,mfh,52.89
2022-08-28T07:59:00,mfh,53.92
2022-08-28T08:00:00,mfh,53.58
2022-08-28T08:01:00,mfh,52.72
2022-08-28T08:02:00,mfh,53.21
2022-08-28T08:03:00,mfh,53.05
2022-08-28T08:04:00,mfh,51.79
2022-08-28T08:05:00,mfh,51.69
2022-08-28T08:06:00,mfh,44.23
2022-08-28T08:07:00,mfh,44.91
2022-08-28T08:08:00,mfh,36.94
2022-08-28T08:09:00,mfh,36.60
2022-08-28T08:10:00,mfh,37.15
2022-08-28T08:11:00,mfh,30.13
2022-08-28T08:12:00,mfh,30.27
2022-08-28T08:13:00,mfh,30.86
2022-08-28T08:14:00,mfh,29.81
2022-08-28T08:15:00,mfh,31.17
2022-08-28T08:16:00,mfh,30.71
2022-08-28T08:17:00,mfh,30.47
2022-08-28T08:18:00,mfh,30.61
2022-08-28T08:19:00,mfh,30.44
2022-08-28T08:20:00,mfh,29.94
2022-08-28T08:21:00,mfh,29.93
2022-08-28T08:22:00,mfh,29.91
2022-08-28T08:23:00,mfh,30.68
2022-08-28T08:24:00,mfh,30.68
2022-08-28T08:25:00,mfh,31.01
2022-08-28T08:26:00,mfh,31.23
2022-08-28T08:27:00,mfh,29.97
2022-08-28T08:28:00,mfh,30.06
2022-08-28T08:29:00,mfh,30.23
2022-08-28T08:30:00,mfh,30.55
2022-08-28T08:31:00,mfh,31.30
2022-08-28T08:32:00,mfh,31.15
2022-08-28T08:33:00,mfh,31.07
2022-08-28T08:34:00,mfh,31.16
2022-08-28T08:35:00,mfh,31.26
2022-08-28T08:36:00,mfh,31.12
2022-08-28T08:37:00,mfh,30.51
2022-08-28T08:38:00,mfh,30.32
2022-08-28T08:39:00,mfh,30.70
2022-08-28T08:40:00,mfh,31.32
2022-08-28T08:41:00,mfh,31.35
2022-08-28T08:42:00,mfh,31.40
2022-08-28T08:43:00,mfh,31.14
2022-08-28T08:44:00,mfh,31.20
2022-08-28T08:45:00,mfh,31.52
2022-08-28T08:46:00,mfh,31.24
2022-08-28T08:47:00,mfh,31.74
2022-08-28T08:48:00,mfh,33.01
2022-08-28T08:49:00,mfh,32.33
2022-08-28T08:50:00,mfh,32.45
2022-08-28T08:51:00,mfh,32.87
2022-08-28T08:52:00,mfh,32.35
2022-08-28T08:53:00,mfh,32.54
2022-08-28T08:54:00,mfh,31.92
2022-08-28T08:55:00,mfh,32.02
2022-08-28T08:56:00,mfh,32.06
2022-08-28T08:57:00,mfh,32.01
2022-08-28T08:58:00,mfh,32.80
2022-08-28T08:59:00,mfh,32.86
2022-08-28T09:00:00,mfh,32.92
2022-08-28T09:01:00,mfh,32.76
2022-08-28T09:02:00,mfh,41.65
2022-08-28T09:03:00,mfh,41.78
2022-08-28T09:04:00,mfh,41.84
2022-08-28T09:05:00,mfh,41.68
2022-08-28T09:06:00,mfh,43.54
2022-08-28T09:07:00,mfh,42.17
2022-08-28T09:08:00,mfh,42.27
2022-08-28T09:09:00,mfh,42.06
2022-08-28T09:10:00,mfh,42.04
2022-08-28T09:11:00,mfh,41.84
2022-08-28T09:12:00,mfh,40.93
2022-08-28T09:13:00,mfh,41.00
2022-08-28T09:14:00,mfh,40.98
2022-08-28T09:15:00,mfh,42.00
2022-08-28T09:16:00,mfh,42.47
2022-08-28T09:17:00,mfh,41.89
2022-08-28T09:18:00,mfh,42.04
2022-08-28T09:19:00,mfh,42.35
2022-08-28T09:20:00,mfh,41.58
2022-08-28T09:21:00,mfh,41.76
2022-08-28T09:22:00,mfh,41.44
2022-08-28T09:23:00,mfh,42.59
2022-08-28T09:24:00,mfh,42.10
2022-08-28T09:25:00,mfh,42.88
2022-08-28T09:26:00,mfh,42.21
2022-08-28T09:27:00,mfh,42.12
2022-08-28T09:28:00,mfh,42.17
2022-08-28T09:29:00,mfh,41.34
2022-08-28T09:30:00,mfh,41.28
2022-08-28T09:31:00,mfh,41.87
2022-08-28T09:32:00,mfh,41.80
2022-08-28T09:33:00,mfh,42.28
2022-08-28T09:34:00,mfh,42.35
2022-08-28T09:35:00,mfh,41.44
2022-08-28T09:36:00,mfh,41.95
2022-08-28T09:37:00,mfh,41.03
2022-08-28T09:38:00,mfh,41.54
2022-08-28T09:39:00,mfh,41.11
2022-08-28T09:40:00,mfh,41.11
2022-08-28T09:41:00,mfh,41.76
2022-08-28T09:42:00,mfh,41.73
2022-08-28T09:43:00,mfh,41.98
2022-08-28T09:44:00,mfh,41.94
2022-08-28T09:45:00,mfh,41.78
2022-08-28T09:46:00,mfh,41.96
2022-08-28T09:47:00,mfh,41.45
2022-08-28T09:48:00,mfh,41.69
2022-08-28T09:49:00,mfh,48.36
2022-08-28T09:50:00,mfh,49.69
2022-08-28T09:51:00,mfh,56.89
2022-08-28T09:52:00,mfh,62.61
2022-08-28T09:53:00,mfh,63.86
2022-08-28T09:54:00,mfh,69.71
2022-08-28T09:55:00,mfh,70.37
2022-08-28T09:56:00,mfh,71.34
2022-08-28T09:57:00,mfh,70.23
2022-08-28T09:58:00,mfh,71.46
2022-08-28T09:59:00,mfh,70.92
2022-08-28T10:00:00,mfh,72.23
2022-08-28T10:01:00,mfh,71.33
2022-08-28T10:02:00,mfh,70.93
2022-08-28T10:03:00,mfh,70.59
2022-08-28T10:04:00,mfh,70.39
2022-08-28T10:05:00,mfh,69.41
2022-08-28T10:06:00,mfh,69.48
2022-08-28T10:07:00,mfh,69.80
2022-08-28T10:08:00,mfh,69.79
2022-08-28T10:09:00,mfh,69.59
2022-08-28T10:10:00,mfh,69.75
2022-08-28T10:11:00,mfh,69.48
2022-08-28T10:12:00,mfh,68.75
2022-08-28T10:13:00,mfh,68.30
2022-08-28T10:14:00,mfh,67.97
2022-08-28T10:15:00,mfh,68.26
2022-08-28T10:16:00,mfh,68.76
2022-08-28T10:17:00,mfh,69.00
2022-08-28T10:18:00,mfh,68.88
2022-08-28T10:19:00,mfh,68.76
2022-08-28T10:20:00,mfh,69.17
2022-08-28T10:21:00,mfh,60.68
2022-08-28T10:22:00,mfh,60.70
2022-08-28T10:23:00,mfh,60.70
2022-08-28T10:24:00,mfh,60.28
2022-08-28T10:25:00,mfh,61.34
2022-08-28T10:26:00,mfh,61.11
2022-08-28T10:27:00,mfh,55.34
2022-08-28T10:28:00,mfh,49.87
2022-08-28T10:29:00,mfh,42.91
2022-08-28T10:30:00,mfh,42.46
2022-08-28T10:31:00,mfh,42.42
2022-08-28T10:32:00,mfh,42.31
2022-08-28T10:33:00,mfh,42.75
2022-08-28T10:34:00,mfh,42.89
2022-08-28T10:35:00,mfh,42.82
2022-08-28T10:36:00,mfh,42.83
2022-08-28T10:37:00,mfh,42.89
2022-08-28T10:38:00,mfh,42.91
2022-08-28T10:39:00,mfh,42.72
2022-08-28T10:40:00,mfh,42.40
2022-08-28T10:41:00,mfh,42.48
2022-08-28T10:42:00,mfh,42.78
2022-08-28T10:43:00,mfh,42.63
2022-08-28T10:44:00,mfh,43.26
2022-08-28T10:45:00,mfh,42.67
2022-08-28T10:46:00,mfh,42.89
2022-08-28T10:47:00,mfh,43.45
2022-08-28T10:48:00,mfh,42.03
2022-08-28T10:49:00,mfh,42.80
2022-08-28T10:50:00,mfh,42.83
2022-08-28T10:51:00,mfh,43.20
2022-08-28T10:52:00,mfh,43.97
2022-08-28T10:53:00,mfh,43.92
2022-08-28T10:54:00,mfh,43.56
2022-08-28T10:55:00,mfh,44.04
2022-08-28T10:56:00,mfh,43.36
2022-08-28T10:57:00,mfh,42.91
2022-08-28T10:58:00,mfh,42.86
2022-08-28T10:59:00,mfh,42.36
2022-08-28T11:00:00,mfh,42.91
2022-08-28T11:01:00,mfh,42.95
2022-08-28T11:02:00,mfh,43.08
2022-08-28T11:03:00,mfh,42.90
2022-08-28T11:04:00,mfh,43.68
2022-08-28T11:05:00,mfh,43.03
2022-08-28T11:06:00,mfh,42.54
2022-08-28T11:07:00,mfh,42.50
2022-08-28T11:08:00,mfh,43.07
2022-08-28T11:09:00,mfh,43.11
2022-08-28T11:10:00,mfh,43.14
2022-08-28T11:11:00,mfh,43.15
2022-08-28T11:12:00,mfh,43.23
2022-08-28T11:13:00,mfh,43.11
2022-08-28T11:14:00,mfh,42.25
2022-08-28T11:15:00,mfh,42.91
2022-08-28T11:16:00,mfh,42.24
2022-08-28T11:17:00,mfh,42.17
2022-08-28T11:18:00,mfh,42.67
2022-08-28T11:19:00,mfh,42.91
2022-08-28T11:20:00,mfh,42.56
2022-08-28T11:21:00,mfh,42.94
2022-08-28T11:22:00,mfh,42.60
2022-08-28T11:23:00,mfh,41.88
2022-08-28T11:24:00,mfh,41.90
2022-08-28T11:25:00,mfh,42.24
2022-08-28T11:26:00,mfh,42.77
2022-08-28T11:27:00,mfh,42.79
2022-08-28T11:28:00,mfh,42.77
2022-08-28T11:29:00,mfh,43.58
2022-08-28T11:30:00,mfh,42.69
2022-08-28T11:31:00,mfh,42.77
2022-08-28T11:32:00,mfh,42.05
2022-08-28T11:33:00,mfh,42.20
2022-08-28T11:34:00,mfh,41.96
2022-08-28T11:35:00,mfh,42.59
2022-08-28T11:36:00,mfh,42.61
2022-08-28T11:37:00,mfh,42.66
2022-08-28T11:38:00,mfh,42.74
2022-08-28T11:39:00,mfh,42.76
2022-08-28T11:40:00,mfh,42.29
2022-08-28T11:41:00,mfh,43.07
2022-08-28T11:42:00,mfh,42.90
2022-08-28T11:43:00,mfh,43.70
2022-08-28T11:44:00,mfh,43.72
2022-08-28T11:45:00,mfh,43.68
2022-08-28T11:46:00,mfh,43.74
2022-08-28T11:47:00,mfh,43.42
2022-08-28T11:48:00,mfh,43.37
2022-08-28T11:49:00,mfh,43.32
2022-08-28T11:50:00,mfh,43.37
2022-08-28T11:51:00,mfh,43.05
2022-08-28T11:52:00,mfh,42.81
2022-08-28T11:53:00,mfh,43.62
2022-08-28T11:54:00,mfh,43.49
2022-08-28T11:55:00,mfh,43.74
2022-08-28T11:56:00,mfh,44.42
2022-08-28T11:57:00,mfh,43.80
2022-08-28T11:58:00,mfh,43.14
2022-08-28T11:59:00,mfh,42.93
2022-08-28T12:00:00,mfh,42.92
2022-08-28T12:01:00,mfh,43.26
2022-08-28T12:02:00,mfh,43.09
2022-08-28T12:03:00,mfh,43.25
2022-08-28T12:04:00,mfh,43.34
2022-08-28T12:05:00,mfh,44.56
2022-08-28T12:06:00,mfh,43.85
2022-08-28T12:07:00,mfh,44.24
2022-08-28T12:08:00,mfh,44.61
2022-08-28T12:09:00,mfh,44.26
2022-08-28T12:10:00,mfh,43.87
2022-08-28T12:11:00,mfh,43.83
2022-08-28T12:12:00,mfh,44.10
2022-08-28T12:13:00,mfh,44.09
2022-08-28T12:14:00,mfh,44.11
2022-08-28T12:15:00,mfh,43.35
2022-08-28T12:16:00,mfh,43.68
2022-08-28T12:17:00,mfh,43.89
2022-08-28T12:18:00,mfh,44.82
2022-08-28T12:19:00,mfh,44.49
2022-08-28T12:20:00,mfh,45.07
2022-08-28T12:21:00,mfh,45.19
2022-08-28T12:22:00,mfh,45.41
2022-08-28T12:23:00,mfh,45.22
2022-08-28T12:24:00,mfh,44.66
2022-08-28T12:25:00,mfh,44.24
2022-08-28T12:26:00,mfh,44.40
2022-08-28T12:27:00,mfh,44.99
2022-08-28T12:28:00,mfh,45.13
2022-08-28T12:29:00,mfh,44.99
2022-08-28T12:30:00,mfh,44.90
2022-08-28T12:31:00,mfh,45.10
2022-08-28T12:32:00,mfh,44.25
2022-08-28T12:33:00,mfh,44.35
2022-08-28T12:34:00,mfh,44.23
2022-08-28T12:35:00,mfh,43.65
2022-08-28T12:36:00,mfh,44.03
2022-08-28T12:37:00,mfh,44.07
2022-08-28T12:38:00,mfh,44.33
2022-08-28T12:39:00,mfh,45.12
2022-08-28T12:40:00,mfh,45.34
2022-08-28T12:41:00,mfh,44.73
2022-08-28T12:42:00,mfh,44.84
2022-08-28T12:43:00,mfh,45.83
2022-08-28T12:44:00,mfh,45.56
2022-08-28T12:45:00,mfh,46.81
2022-08-28T12:46:00,mfh,45.01
2022-08-28T12:47:00,mfh,45.15
2022-08-28T12:48:00,mfh,45.13
2022-08-28T12:49:00,mfh,45.34
2022-08-28T12:50:00,mfh,44.58
2022-08-28T12:51:00,mfh,44.64
2022-08-28T12:52:00,mfh,44.86
2022-08-28T12:53:00,mfh,45.80
2022-08-28T12:54:00,mfh,45.10
2022-08-28T12:55:00,mfh,46.07
2022-08-28T12:56:00,mfh,44.79
2022-08-28T12:57:00,mfh,45.51
2022-08-28T12:58:00,mfh,45.64
2022-08-28T12:59:00,mfh,44.52
2022-08-28T13:00:00,mfh,44.52
2022-08-28T13:01:00,mfh,44.48
2022-08-28T13:02:00,mfh,45.07
2022-08-28T13:03:00,mfh,44.24
2022-08-28T13:04:00,mfh,44.16
2022-08-28T13:05:00,mfh,45.25
2022-08-28T13:06:00,mfh,44.24
2022-08-28T13:07:00,mfh,44.08
2022-08-28T13:08:00,mfh,43.70
2022-08-28T13:09:00,mfh,43.68
2022-08-28T13:10:00,mfh,43.61
2022-08-28T13:11:00,mfh,44.18
2022-08-28T13:12:00,mfh,44.17
2022-08-28T13:13:00,mfh,44.34
2022-08-28T13:14:00,mfh,44.45
2022-08-28T13:15:00,mfh,44.49
2022-08-28T13:16:00,mfh,44.60
2022-08-28T13:17:00,mfh,43.76
2022-08-28T13:18:00,mfh,44.05